FW4683 Weather Reports


Display with metric or nautical units.
time (UTC)temp
F
wind
direction
speed
MPH
gust
MPH
rain 1hr
in
rain 24hr
in
rain mn
in
humidity
%
barometer
mb
20260906004010 79 98 0.0 1.0 0.00 0.00 0.00 86 1011.0
20260906003010 78 98 0.0 3.0 0.00 0.00 0.00 86 1010.8
20260906002510 79 98 0.0 3.0 0.00 0.00 0.00 85 1010.8
20260906002010 79 98 0.0 1.0 0.00 0.00 0.00 84 1010.7
20260906001510 79 98 0.0 1.0 0.00 0.00 0.00 84 1010.5
20260906001013 79 98 0.0 1.0 0.00 0.00 0.00 85 1010.6
20260906000510 79 98 0.0 4.0 0.00 0.00 0.00 83 1010.4
20260906000010 80 98 1.0 4.0 0.00 0.00 0.00 82 1010.5
20260905235509 80 98 0.0 3.0 0.00 0.00 0.00 81 1010.5
20260905235013 81 98 0.0 3.0 0.00 0.00 0.00 81 1010.4
20260905234510 81 98 0.0 2.0 0.00 0.00 0.00 80 1010.4
20260905234013 82 98 0.0 1.0 0.00 0.00 0.00 78 1010.4
20260905233012 83 98 0.0 1.0 0.00 0.00 0.00 76 1010.3
20260905232510 83 98 0.0 1.0 0.00 0.00 0.00 74 1010.3
20260905232009 83 98 0.0 1.0 0.00 0.00 0.00 73 1010.3
20260905231509 84 98 0.0 1.0 0.00 0.00 0.00 71 1010.2
20260905231011 85 98 0.0 1.0 0.00 0.00 0.00 70 1010.2
20260905230508 86 98 0.0 1.0 0.00 0.00 0.00 70 1010.2
20260905230009 86 98 0.0 1.0 0.00 0.00 0.00 69 1010.2
20260905225508 86 98 0.0 1.0 0.00 0.00 0.00 69 1010.1
20260905225008 86 98 0.0 1.0 0.00 0.00 0.00 70 1010.1
20260905224508 86 98 0.0 1.0 0.00 0.00 0.00 70 1010.1
20260905224012 85 98 1.0 3.0 0.00 0.00 0.00 70 1010.0
20260905223017 85 98 1.0 3.0 0.00 0.00 0.00 70 1010.1
20260905222508 85 98 0.0 4.0 0.00 0.00 0.00 70 1010.1
20260905222007 84 98 0.0 4.0 0.00 0.00 0.00 71 1010.1
20260905221506 84 98 0.0 4.0 0.00 0.00 0.00 71 1010.1
20260905221007 84 98 2.0 6.0 0.00 0.00 0.00 71 1010.2
20260905220506 84 98 2.0 6.0 0.00 0.00 0.00 70 1010.1
20260905220006 84 98 2.0 6.0 0.00 0.00 0.00 71 1010.1
20260905215509 84 98 2.0 6.0 0.00 0.00 0.00 71 1010.2
20260905215004 84 98 2.0 7.0 0.00 0.00 0.00 71 1010.3
20260905214505 84 98 1.0 6.0 0.00 0.00 0.00 70 1010.2
20260905214005 83 98 1.0 7.0 0.00 0.00 0.00 73 1010.2
20260905213003 83 98 1.0 7.0 0.00 0.00 0.00 73 1010.3
20260905212505 83 98 4.0 7.0 0.00 0.00 0.00 72 1010.3
20260905212005 83 98 1.0 6.0 0.00 0.00 0.00 74 1010.5
20260905211511 82 98 2.0 4.0 0.00 0.00 0.00 74 1010.5
20260905211003 82 98 1.0 7.0 0.00 0.00 0.00 74 1010.5
20260905210503 81 98 2.0 11.0 0.00 0.00 0.00 76 1010.5
20260905210002 81 98 2.0 11.0 0.00 0.00 0.00 76 1010.5
20260905205502 80 98 4.0 9.0 0.00 0.00 0.00 76 1010.6
20260905205003 80 98 4.0 8.0 0.00 0.00 0.00 76 1010.7
20260905204502 79 98 4.0 8.0 0.00 0.00 0.00 77 1010.7
20260905204002 78 98 2.0 7.0 0.00 0.00 0.00 79 1011.0
20260905203003 78 98 1.0 9.0 0.00 0.00 0.00 80 1011.0
20260905202506 78 98 4.0 11.0 0.00 0.00 0.00 80 1011.2
20260905202002 78 98 6.0 11.0 0.00 0.00 0.00 79 1011.1
20260905201504 78 98 5.0 8.0 0.00 0.00 0.00 81 1011.1
20260905201002 78 98 1.0 4.0 0.00 0.00 0.00 81 1011.4
20260905200502 77 98 2.0 6.0 0.00 0.00 0.00 81 1011.5
20260905200002 77 98 2.0 11.0 0.00 0.00 0.00 81 1011.4
20260905195501 77 98 4.0 11.0 0.00 0.00 0.00 80 1011.4
20260905195001 77 98 1.0 7.0 0.00 0.00 0.00 80 1011.3
20260905194502 77 98 1.0 6.0 0.00 0.00 0.00 79 1011.3
20260905194002 77 98 1.0 6.0 0.00 0.00 0.00 81 1011.4
20260905193100 76 98 3.0 9.0 0.00 0.00 0.00 81 1011.7
20260905192601 76 98 5.0 9.0 0.00 0.00 0.00 81 1011.7
20260905192101 76 98 3.0 7.0 0.00 0.00 0.00 81 1011.6
20260905191600 76 98 3.0 7.0 0.00 0.00 0.00 82 1011.5
20260905191100 76 98 4.0 7.0 0.00 0.00 0.00 81 1011.5
20260905190600 76 98 2.0 9.0 0.00 0.00 0.00 81 1011.7
20260905185600 76 98 2.0 6.0 0.00 0.00 0.00 81 1011.5
20260905185103 76 98 1.0 4.0 0.00 0.00 0.00 80 1011.5
20260905184611 76 98 1.0 6.0 0.00 0.00 0.00 80 1011.9
20260905184100 76 98 0.0 10.0 0.00 0.00 0.00 80 1011.3
20260905183002 77 98 5.0 8.0 0.00 0.00 0.00 78 1011.5
20260905182601 78 98 1.0 11.0 0.00 0.00 0.00 76 1011.7
20260905182500 78 98 0.0 11.0 0.00 0.00 0.00 74 1011.5
20260905182102 79 98 4.0 11.0 0.00 0.00 0.00 72 1011.7
20260905181602 82 98 3.0 7.0 0.00 0.00 0.00 67 1010.9
20260905181059 83 98 0.0 13.0 0.00 0.00 0.00 67 1010.3
20260905180600 83 98 5.0 14.0 0.00 0.00 0.00 65 1011.2
20260905180059 84 98 8.0 32.0 0.00 0.00 0.00 63 1011.3
20260905175557 86 98 9.0 37.0 0.00 0.00 0.00 62 1011.7
20260905175057 90 96 11.0 18.0 0.00 0.00 0.00 61 1011.9
20260905174555 91 96 8.0 15.0 0.00 0.00 0.00 61 1012.2
20260905174059 92 96 5.0 13.0 0.00 0.00 0.00 59 1011.7
20260905173054 92 96 2.0 14.0 0.00 0.00 0.00 58 1011.9
20260905172555 92 96 6.0 14.0 0.00 0.00 0.00 57 1011.9
20260905172052 92 96 4.0 15.0 0.00 0.00 0.00 59 1011.9
20260905171553 92 96 5.0 17.0 0.00 0.00 0.00 58 1012.1
20260905171052 92 96 10.0 18.0 0.00 0.00 0.00 57 1012.1
20260905170551 92 96 10.0 18.0 0.00 0.00 0.00 58 1012.0
20260905170104 91 96 6.0 17.0 0.00 0.00 0.00 60 1012.0
20260905165554 91 96 6.0 18.0 0.00 0.00 0.00 60 1012.1
20260905165050 91 96 6.0 18.0 0.00 0.00 0.00 59 1012.2
20260905164559 91 95 4.0 12.0 0.00 0.00 0.00 61 1012.2
20260905164049 92 95 7.0 15.0 0.00 0.00 0.00 59 1012.3
20260905163049 91 95 3.0 12.0 0.00 0.00 0.00 61 1012.4
20260905162550 91 95 1.0 15.0 0.00 0.00 0.00 61 1012.4
20260905162048 91 95 5.0 11.0 0.00 0.00 0.00 61 1012.6
20260905161549 92 96 4.0 13.0 0.00 0.00 0.00 61 1012.7
20260905161050 92 95 4.0 12.0 0.00 0.00 0.00 62 1012.8
20260905160547 91 95 1.0 4.0 0.00 0.00 0.00 63 1012.8
20260905160047 91 96 0.0 6.0 0.00 0.00 0.00 64 1012.9
20260905155546 90 95 0.0 6.0 0.00 0.00 0.00 67 1013.0
20260905155046 90 96 1.0 6.0 0.00 0.00 0.00 65 1013.0
20260905154546 90 96 1.0 6.0 0.00 0.00 0.00 65 1013.1
20260905154045 91 95 0.0 4.0 0.00 0.00 0.00 65 1013.0
20260905153044 90 95 0.0 2.0 0.00 0.00 0.00 66 1012.9
20260905152543 89 95 0.0 8.0 0.00 0.00 0.00 67 1012.8
20260905152046 89 95 2.0 7.0 0.00 0.00 0.00 67 1012.9
20260905151542 88 95 0.0 3.0 0.00 0.00 0.00 68 1012.8
20260905151041 88 95 0.0 4.0 0.00 0.00 0.00 68 1012.7
20260905150540 88 95 1.0 4.0 0.00 0.00 0.00 68 1012.7
20260905150039 87 95 0.0 3.0 0.00 0.00 0.00 69 1012.6
20260905145538 86 95 0.0 4.0 0.00 0.00 0.00 70 1012.7
20260905145037 86 95 1.0 4.0 0.00 0.00 0.00 71 1012.8
20260905144537 85 95 0.0 7.0 0.00 0.00 0.00 72 1012.7
20260905144035 84 96 3.0 7.0 0.00 0.00 0.00 73 1012.8
20260905143036 84 95 1.0 6.0 0.00 0.00 0.00 76 1012.9
20260905142538 84 95 2.0 4.0 0.00 0.00 0.00 76 1012.9
20260905142033 83 96 1.0 3.0 0.00 0.00 0.00 76 1013.0
20260905141532 83 95 1.0 4.0 0.00 0.00 0.00 77 1013.1
20260905141033 83 95 1.0 4.0 0.00 0.00 0.00 77 1013.0
20260905140530 82 95 0.0 3.0 0.00 0.00 0.00 79 1013.1
20260905140029 81 95 1.0 6.0 0.00 0.00 0.00 79 1013.0
20260905135529 81 95 2.0 7.0 0.00 0.00 0.00 80 1013.0
20260905135027 80 96 3.0 7.0 0.00 0.00 0.00 81 1013.0
20260905134530 80 96 2.0 7.0 0.00 0.00 0.00 81 1013.2
20260905134026 80 95 2.0 7.0 0.00 0.00 0.00 81 1013.0
20260905133024 79 96 1.0 7.0 0.00 0.00 0.00 83 1013.1
20260905132524 79 96 2.0 6.0 0.00 0.00 0.00 83 1013.2
20260905132023 78 96 2.0 6.0 0.00 0.00 0.00 83 1013.2
20260905131520 78 96 2.0 7.0 0.00 0.00 0.00 84 1013.2
20260905131024 77 95 3.0 7.0 0.00 0.00 0.00 84 1013.4
20260905130520 77 95 1.0 6.0 0.00 0.00 0.00 85 1013.5
20260905130029 77 96 0.0 6.0 0.00 0.00 0.00 85 1013.5
20260905125519 77 96 0.0 6.0 0.00 0.00 0.00 86 1013.6
20260905125019 76 96 0.0 6.0 0.00 0.00 0.00 87 1013.5
20260905124523 76 96 1.0 6.0 0.00 0.00 0.00 87 1013.6
20260905124018 76 96 0.0 2.0 0.00 0.00 0.00 87 1013.5
20260905123018 75 96 1.0 4.0 0.00 0.00 0.00 88 1013.4
20260905122519 75 96 0.0 4.0 0.00 0.00 0.00 89 1013.4
20260905122019 75 96 0.0 4.0 0.00 0.00 0.00 89 1013.4
20260905121518 75 96 0.0 1.0 0.00 0.00 0.00 90 1013.3
20260905121021 74 96 0.0 1.0 0.00 0.00 0.00 91 1013.4
20260905120518 74 95 0.0 1.0 0.00 0.00 0.00 92 1013.2
20260905120018 74 95 0.0 1.0 0.00 0.00 0.00 91 1013.3
20260905115521 73 95 0.0 0.0 0.00 0.00 0.00 92 1013.3
20260905115018 73 95 0.0 0.0 0.00 0.00 0.00 93 1013.3
20260905114518 72 96 0.0 0.0 0.00 0.00 0.00 93 1013.3
20260905114018 72 96 0.0 0.0 0.00 0.00 0.00 93 1013.2
20260905113017 72 95 0.0 0.0 0.00 0.00 0.00 93 1013.0
20260905112516 72 96 0.0 0.0 0.00 0.00 0.00 93 1012.9
20260905112017 72 96 0.0 0.0 0.00 0.00 0.00 93 1012.9
20260905111516 72 96 0.0 3.0 0.00 0.00 0.00 93 1012.8
20260905111016 72 95 0.0 4.0 0.00 0.00 0.00 93 1012.7
20260905110515 72 95 0.0 3.0 0.00 0.00 0.00 93 1012.7
20260905110015 72 95 0.0 1.0 0.00 0.00 0.00 93 1012.5
20260905105518 72 96 0.0 0.0 0.00 0.00 0.00 93 1012.4
20260905105014 72 96 0.0 1.0 0.00 0.00 0.00 93 1012.2
20260905104515 72 96 0.0 1.0 0.00 0.00 0.00 93 1012.2
20260905104019 72 96 0.0 1.0 0.00 0.00 0.00 93 1012.2
20260905103015 72 95 0.0 1.0 0.00 0.00 0.00 93 1012.1
20260905102517 72 96 0.0 2.0 0.00 0.00 0.00 93 1012.1
20260905102014 72 96 0.0 2.0 0.00 0.00 0.00 93 1012.2
20260905101514 73 96 0.0 1.0 0.00 0.00 0.00 93 1012.1
20260905101013 73 96 0.0 0.0 0.00 0.00 0.00 92 1012.0
20260905100513 73 95 0.0 0.0 0.00 0.00 0.00 92 1012.0
20260905100013 73 96 0.0 0.0 0.00 0.00 0.00 92 1012.0
20260905095514 73 96 0.0 0.0 0.00 0.00 0.00 92 1012.1
20260905095113 73 96 0.0 0.0 0.00 0.00 0.00 92 1012.0
20260905094512 73 96 0.0 2.0 0.00 0.00 0.00 93 1011.9
20260905094010 73 95 0.0 2.0 0.00 0.00 0.00 93 1012.1
20260905093011 73 96 0.0 1.0 0.00 0.00 0.00 93 1012.0
20260905092511 73 95 0.0 1.0 0.00 0.00 0.00 93 1012.0
20260905092014 73 95 0.0 1.0 0.00 0.00 0.00 93 1012.0
20260905091510 73 95 0.0 1.0 0.00 0.00 0.00 93 1012.1
20260905091009 73 96 0.0 1.0 0.00 0.00 0.00 93 1012.0
20260905090509 73 95 0.0 2.0 0.00 0.00 0.00 93 1012.0
20260905090007 73 96 0.0 2.0 0.00 0.00 0.00 92 1012.2
20260905085508 73 96 0.0 0.0 0.00 0.00 0.00 92 1012.0
20260905085007 73 96 0.0 2.0 0.00 0.00 0.00 92 1012.1
20260905084506 74 96 0.0 2.0 0.00 0.00 0.00 92 1012.2
20260905084007 74 96 0.0 1.0 0.00 0.00 0.00 91 1012.2
20260905083008 74 95 0.0 1.0 0.00 0.00 0.00 91 1012.4
20260905082505 74 96 0.0 1.0 0.00 0.00 0.00 92 1012.5
20260905082005 74 96 0.0 2.0 0.00 0.00 0.00 92 1012.5
20260905081505 74 95 0.0 2.0 0.00 0.00 0.00 92 1012.6
20260905081003 74 96 0.0 1.0 0.00 0.00 0.00 92 1012.6
20260905080505 74 96 0.0 2.0 0.00 0.00 0.00 92 1012.8
20260905080002 74 95 0.0 0.0 0.00 0.00 0.00 91 1012.8
20260905075504 75 95 0.0 1.0 0.00 0.00 0.00 90 1012.8
20260905075001 75 95 0.0 1.0 0.00 0.00 0.00 91 1012.8
20260905074600 74 95 0.0 1.0 0.00 0.00 0.00 91 1012.9
20260905074100 74 96 0.0 0.0 0.00 0.00 0.00 91 1013.0
20260905073700 74 96 0.0 0.0 0.00 0.00 0.00 92 1013.0
20260905073059 74 95 0.0 0.0 0.00 0.00 0.00 92 1013.1
20260905072558 75 96 0.0 0.0 0.00 0.00 0.00 91 1013.0
20260905072057 75 96 0.0 0.0 0.00 0.00 0.00 91 1013.0
20260905071558 75 96 0.0 0.0 0.00 0.00 0.00 91 1013.0
20260905071057 75 95 0.0 0.0 0.00 0.00 0.00 91 1013.0
20260905070601 75 96 0.0 0.0 0.00 0.00 0.00 91 1013.0
20260905070056 75 95 0.0 1.0 0.00 0.00 0.00 91 1013.0
20260905065558 75 95 0.0 1.0 0.00 0.00 0.00 90 1013.1
20260905065055 75 96 0.0 1.0 0.00 0.00 0.00 90 1013.2
20260905064554 76 96 0.0 1.0 0.00 0.00 0.00 89 1013.2
20260905064056 77 95 0.0 1.0 0.00 0.00 0.00 88 1013.3
20260905063654 76 96 0.0 1.0 0.00 0.00 0.00 89 1013.3
20260905063052 76 95 0.0 1.0 0.00 0.00 0.00 89 1013.3
20260905062552 77 96 0.0 1.0 0.00 0.00 0.00 88 1013.3
20260905062051 77 95 0.0 1.0 0.00 0.00 0.00 87 1013.3
20260905061555 77 96 0.0 1.0 0.00 0.00 0.00 88 1013.4
20260905061051 77 96 0.0 1.0 0.00 0.00 0.00 89 1013.5
20260905060550 76 95 0.0 6.0 0.00 0.00 0.00 90 1013.5
20260905060049 76 95 0.0 6.0 0.00 0.00 0.00 90 1013.6
20260905055548 76 95 1.0 3.0 0.00 0.00 0.00 90 1013.7
20260905055049 76 95 0.0 1.0 0.00 0.00 0.00 90 1013.7
20260905054548 76 95 0.0 0.0 0.00 0.00 0.00 89 1013.8
20260905054047 76 96 0.0 0.0 0.00 0.00 0.00 90 1013.9
20260905053647 76 96 0.0 0.0 0.00 0.00 0.00 89 1013.8
20260905053054 77 96 0.0 1.0 0.00 0.00 0.00 89 1013.9
20260905052555 77 96 0.0 1.0 0.00 0.00 0.00 88 1014.0
20260905052052 77 95 0.0 1.0 0.00 0.00 0.00 89 1013.9
20260905051549 77 96 0.0 0.0 0.00 0.00 0.00 89 1013.8
20260905051048 77 95 0.0 1.0 0.00 0.00 0.00 89 1013.7
20260905050549 77 96 0.0 3.0 0.00 0.00 0.00 89 1013.7
20260905050049 76 95 1.0 3.0 0.00 0.00 0.00 90 1013.9
20260905045549 77 96 0.0 2.0 0.00 0.00 0.00 89 1013.8
20260905045048 77 95 0.0 1.0 0.00 0.00 0.00 89 1013.8
20260905044550 77 95 0.0 2.0 0.00 0.00 0.00 88 1013.9
20260905044047 77 96 0.0 2.0 0.00 0.00 0.00 89 1013.9
20260905043647 78 95 0.0 1.0 0.00 0.00 0.00 88 1013.7
20260905043043 78 96 0.0 1.0 0.00 0.00 0.00 88 1013.8
20260905042543 78 96 0.0 1.0 0.00 0.00 0.00 89 1013.8
20260905042043 77 95 0.0 0.0 0.00 0.00 0.00 90 1013.8
20260905041550 77 96 0.0 4.0 0.00 0.00 0.00 90 1013.7
20260905041042 77 96 0.0 4.0 0.00 0.00 0.00 90 1013.7
20260905040543 77 96 0.0 0.0 0.00 0.00 0.00 90 1013.7
20260905040042 78 95 0.0 0.0 0.00 0.00 0.00 90 1013.7
20260905035542 78 96 0.0 0.0 0.00 0.00 0.00 89 1013.5
20260905035042 78 96 0.0 0.0 0.00 0.00 0.00 88 1013.6
20260905034548 78 95 0.0 2.0 0.00 0.00 0.00 89 1013.6
20260905034043 78 95 0.0 6.0 0.00 0.00 0.00 90 1013.7
20260905033641 78 95 1.0 3.0 0.00 0.00 0.00 89 1013.6
20260905033042 79 95 1.0 3.0 0.00 0.00 0.00 88 1013.6
20260905032542 79 96 0.0 0.0 0.00 0.00 0.00 87 1013.5
20260905032041 79 95 0.0 0.0 0.00 0.00 0.00 87 1013.4
20260905031542 79 96 0.0 0.0 0.00 0.00 0.00 86 1013.3
20260905031044 79 95 0.0 0.0 0.00 0.00 0.00 87 1013.4
20260905030542 79 95 0.0 0.0 0.00 0.00 0.00 87 1013.4
20260905030045 79 96 0.0 1.0 0.00 0.00 0.00 87 1013.3
20260905025542 79 95 0.0 2.0 0.00 0.00 0.00 87 1013.3
20260905025044 79 95 0.0 3.0 0.00 0.00 0.00 88 1013.3
20260905024541 79 95 0.0 3.0 0.00 0.00 0.00 88 1013.4
20260905024041 79 95 1.0 3.0 0.00 0.00 0.00 88 1013.4
20260905023640 80 95 0.0 2.0 0.00 0.00 0.00 88 1013.5
20260905023039 80 96 0.0 3.0 0.00 0.00 0.00 88 1013.5
20260905022543 80 95 0.0 3.0 0.00 0.00 0.00 87 1013.4
20260905022041 80 96 0.0 2.0 0.00 0.00 0.00 87 1013.5
20260905021540 80 95 0.0 1.0 0.00 0.00 0.00 87 1013.6
20260905021040 80 95 0.0 1.0 0.00 0.00 0.00 86 1013.7
20260905020539 80 96 0.0 2.0 0.00 0.00 0.00 86 1013.8
20260905020040 80 95 0.0 2.0 0.00 0.00 0.00 86 1013.8
20260905015539 81 96 0.0 1.0 0.00 0.00 0.00 85 1013.9
20260905015040 81 95 0.0 1.0 0.00 0.00 0.00 85 1013.9
20260905014538 81 95 0.0 4.0 0.00 0.00 0.00 85 1013.9
20260905014039 82 95 1.0 3.0 0.00 0.00 0.00 83 1013.9
20260905013639 82 95 0.0 2.0 0.00 0.00 0.00 83 1013.9
20260905013045 82 95 0.0 2.0 0.00 0.00 0.00 83 1013.9
20260905012540 82 95 0.0 2.0 0.00 0.00 0.00 83 1013.9
20260905012038 82 95 0.0 2.0 0.00 0.00 0.00 83 1013.8
20260905011537 83 95 0.0 2.0 0.00 0.00 0.00 82 1013.9
20260905011037 83 95 0.0 1.0 0.00 0.00 0.00 81 1013.9
20260905010537 83 95 0.0 1.0 0.00 0.00 0.00 81 1013.9
20260905010041 83 96 0.0 2.0 0.00 0.00 0.00 80 1013.7
20260905005537 83 95 0.0 3.0 0.00 0.00 0.00 79 1013.7
20260905005037 83 95 1.0 3.0 0.00 0.00 0.00 79 1013.7
20260905004549 84 95 0.0 2.0 0.00 0.00 0.00 78 1013.7
20260905004036 84 96 0.0 2.0 0.00 0.00 0.00 79 1013.5